Location: Dompnac
(44.5644°N, 4.1026°E)
Time: 10:53:28
(UTC+00:00)

Cosmos 1891 Rocket - Pass Details

Date: 19 September 2020
Orbit: 934 x 1018 km, 82.9° (Epoch: 30 October)

Event Time Altitude Azimuth Distance (km) Brightness Sun altitude
Rises 18:49:20 0° 177° (S) 3,645 7.3 -12.0°
Reaches altitude 10° 18:51:51 10° 175° (S) 2,691 6.6 -12.4°
Maximum altitude 18:57:56 67° 94° (E) 1,025 4.4 -13.5°
Drops below altitude 10° 19:03:57 10° 13° (NNE) 2,664 6.8 -14.5°
Sets 19:06:26 0° 11° (N) 3,607 7.6 -14.9°
